Wind_Speed
6 6 5 6 6 6 6 6 6 5 4 3 3 3 3 4 3 3 2 2 2 2 3 4 6 7 8 8 8 8 8 7 6 2 3 4 5 3 2 2 3 3 3 4 5 3 2 1 2 4 5 6 7 8 8 6 5 4 3 3 2 3 4 6 7 7 4 3 7 12 14 8 5 10 9 5 7 9 12 16 14 14 15 13 11 9 12 18
6 5 5 5 5 5 5 6 5 5 4 3 2 2 2 1 1 1 1 2 1 1 2 3 5 6 5 6 5 5 5 6 5 3 5 6 5 3 2 1 2 3 4 4 5 3 1 2 3 4 4 5 5 5 6 4 4 3 3 2 3 5 4 5 8 11 4 3 12 13 12 10 6 11 12 5 6 9 8 12 14 14 16 15 14 12 13 18
6 5 4 4 4 4 4 5 5 4 3 2 2 1 1 1 1 1 1 1 1 0 1 2 4 4 4 6 6 4 4 4 4 4 6 6 5 4 2 0 2 3 4 4 4 2 2 3 4 3 5 6 5 4 4 4 3 2 4 2 4 5 4 2 7 11 5 4 12 12 11 10 7 12 13 6 6 8 9 13 15 16 18 17 15 14 15 19
6 5 4 4 4 3 3 4 4 3 2 1 1 1 0 1 1 1 2 2 2 2 2 0 2 4 6 9 10 5 3 2 5 7 7 6 6 5 3 0 2 3 4 4 4 2 2 3 3 3 6 5 4 4 4 5 3 2 3 1 4 5 4 2 5 6 5 5 9 11 10 8 10 13 13 9 5 5 14 21 19 17 17 17 16 15 17 20
5 4 4 4 3 3 3 3 3 2 2 1 1 2 3 3 3 3 2 2 3 2 3 2 2 4 6 10 10 2 2 2 5 8 7 6 6 6 4 1 1 3 5 5 4 2 1 2 2 2 5 4 4 4 3 5 5 4 3 1 4 4 3 3 5 5 5 5 7 11 8 7 11 13 15 14 7 8 15 20 21 18 14 14 15 14 17 20
4 3 3 3 4 4 3 2 2 1 1 2 3 4 5 5 4 4 3 3 4 4 4 3 3 4 5 9 10 5 1 1 4 7 6 6 6 6 4 2 1 3 5 5 5 3 1 2 2 2 4 3 3 3 3 4 3 3 2 2 4 3 4 6 6 5 5 7 9 10 7 9 12 9 14 20 18 17 14 13 17 20 17 14 13 15 18 19
4 3 3 3 4 4 3 2 2 2 3 3 4 5 5 5 3 2 3 3 4 5 5 5 4 4 3 6 8 5 4 4 4 6 6 6 6 6 5 4 2 2 4 6 6 3 2 2 3 4 5 4 2 3 5 5 4 4 2 2 4 4 6 7 6 5 4 7 7 8 7 8 11 7 8 19 26 25 20 14 13 18 21 18 17 18 18 17
4 3 2 2 3 3 3 3 3 2 3 3 4 5 5 4 3 2 2 3 3 5 6 5 3 2 1 5 6 4 6 7 6 6 6 7 6 6 5 5 4 1 4 6 6 4 2 3 5 6 5 3 3 2 4 5 6 5 3 3 4 5 6 5 4 5 5 6 6 7 8 7 10 8 8 19 25 22 24 23 17 17 21 22 21 20 19 18
4 3 2 2 3 4 4 5 4 3 3 3 3 4 5 5 4 3 2 3 3 5 6 5 3 2 2 5 5 3 6 7 6 6 6 6 6 6 5 5 5 3 1 5 6 5 3 4 6 4 3 5 6 3 3 3 2 3 5 5 5 5 4 4 2 3 4 6 6 7 6 6 8 6 12 23 23 20 23 25 23 20 22 24 23 21 20 20
4 3 2 3 4 5 6 6 5 4 3 3 3 3 4 4 3 2 2 2 3 5 7 6 4 3 3 5 3 1 4 6 5 5 6 6 6 6 5 5 6 5 2 2 4 5 4 3 5 5 6 7 6 4 5 3 3 7 11 9 6 4 3 1 1 3 3 3 6 5 4 6 6 1 9 17 14 17 21 23 24 22 23 24 23 22 21 22
4 3 3 4 5 6 7 6 5 4 3 3 3 3 3 3 3 1 1 2 3 5 6 6 5 5 5 4 3 4 3 5 4 4 5 5 5 4 4 6 7 7 5 3 1 2 3 3 6 6 4 6 6 7 8 7 9 12 13 8 5 4 1 1 1 2 1 1 4 4 4 5 4 3 13 19 13 14 18 21 24 24 24 24 23 22 22 23
4 3 3 4 6 6 5 5 5 4 2 2 3 4 4 4 3 2 0 1 3 5 4 5 7 6 4 4 5 5 4 4 4 4 3 4 3 3 4 7 8 9 9 7 4 4 5 7 7 3 5 10 6 5 8 9 10 9 8 3 5 6 3 4 1 2 1 1 2 3 5 4 6 10 19 17 13 15 16 20 24 25 26 25 24 24 24 25
4 3 4 5 5 4 4 5 6 5 5 4 3 4 4 5 4 2 2 1 2 5 3 4 7 6 3 2 6 6 4 5 5 4 3 2 1 2 4 6 8 9 10 8 4 5 6 7 4 4 10 11 5 6 9 8 7 5 5 2 2 6 4 3 0 1 1 2 1 2 5 5 8 17 19 14 13 15 17 21 23 26 27 26 26 25 26 26
3 3 4 5 4 3 3 5 6 6 5 4 4 4 4 4 3 3 3 2 4 5 3 5 6 4 1 3 5 6 5 5 5 4 1 0 1 1 3 6 8 9 10 8 4 5 5 4 3 7 11 10 11 13 8 5 5 2 2 2 1 2 4 4 1 1 1 3 3 4 3 9 8 12 13 13 16 15 18 22 23 26 27 28 28 27 29 29
3 3 4 4 4 3 3 4 6 6 4 4 5 5 6 5 4 3 3 4 5 4 3 3 4 1 2 4 4 5 5 4 4 3 1 1 2 1 3 6 7 9 9 8 5 7 7 5 5 8 11 13 15 10 4 4 4 3 1 3 2 1 5 6 2 2 2 3 3 4 3 10 11 12 11 12 16 17 20 23 23 26 27 28 29 29 31 30
2 2 3 3 3 3 3 4 5 5 5 5 6 7 7 6 4 4 4 5 4 4 3 2 2 0 2 3 2 4 5 3 4 4 2 1 2 2 3 5 7 8 8 7 6 7 6 4 7 9 8 9 8 5 4 3 3 3 1 3 2 2 3 6 2 1 2 1 2 3 3 8 8 7 8 10 14 17 21 24 25 27 28 29 30 31 32 31
2 1 1 2 3 4 3 3 3 4 5 5 6 7 8 7 5 4 4 3 2 4 3 2 3 2 3 3 1 4 7 6 5 3 1 1 2 1 2 4 6 7 6 6 5 3 1 3 7 5 4 3 3 4 4 2 4 3 1 1 3 3 2 4 3 2 0 1 3 2 3 12 13 9 11 13 14 16 22 27 29 28 29 29 30 31 32 32
2 2 2 3 4 5 4 3 3 4 6 7 8 8 8 7 6 4 4 3 3 4 3 2 5 1 2 6 4 4 7 7 4 2 0 1 3 1 1 3 4 5 4 2 2 2 1 3 4 1 3 3 3 4 3 4 4 2 2 2 3 2 2 4 4 2 1 0 4 2 5 16 20 17 21 22 19 20 26 31 31 30 31 30 29 31 32 33
3 3 3 5 6 7 5 4 5 6 9 10 10 8 7 7 5 3 3 3 4 3 2 3 6 2 1 7 6 3 4 6 5 2 1 2 3 2 0 3 3 4 4 1 2 4 3 3 3 1 1 1 1 4 6 6 5 4 4 3 2 4 4 5 4 3 0 2 6 7 8 16 19 17 18 21 21 24 29 31 31 31 31 30 30 31 32 33
5 4 6 6 6 8 7 7 7 7 10 10 7 6 5 5 2 1 3 2 2 3 2 2 5 4 2 6 7 3 1 3 6 4 2 3 3 3 2 3 3 3 4 0 2 5 5 2 2 4 5 4 3 4 5 4 5 5 4 2 3 3 6 4 2 3 0 1 7 7 8 14 20 18 16 17 17 21 26 26 28 31 31 31 31 32 32 32
6 5 4 5 8 9 9 9 8 8 9 8 6 4 4 4 2 1 3 4 6 5 4 3 3 3 3 4 7 5 2 2 5 6 4 3 3 3 3 2 2 2 3 1 2 4 5 1 4 5 6 5 4 4 5 5 5 4 4 1 2 3 6 4 0 3 1 0 5 4 5 13 20 19 15 11 10 16 23 25 26 30 30 31 32 32 31 30
6 4 4 6 8 8 9 9 9 8 7 7 6 5 6 6 5 4 3 2 5 5 5 5 4 4 4 4 6 6 1 1 2 5 5 2 2 2 2 2 4 0 3 2 2 5 3 3 5 5 6 6 5 4 5 5 5 3 3 1 3 3 4 5 2 3 2 1 5 4 5 14 21 19 12 9 12 15 19 21 24 26 27 29 30 29 28 27
6 5 6 7 8 9 9 9 9 8 5 5 6 5 6 7 6 7 5 1 3 3 4 5 5 5 5 5 5 5 2 1 2 5 7 3 1 1 1 3 4 1 2 3 2 0 2 4 4 6 8 7 5 3 5 4 2 2 3 1 4 2 1 4 3 3 2 3 5 6 6 10 15 13 7 5 9 12 13 15 19 22 25 27 27 27 26 26
6 7 7 8 9 9 10 9 8 8 5 4 5 5 5 7 7 7 4 1 1 1 3 4 5 5 5 5 6 4 3 4 4 6 8 4 2 2 2 4 4 2 0 1 5 5 4 3 5 7 4 5 4 1 4 3 2 2 4 4 5 3 2 5 3 5 4 2 3 6 7 6 6 7 5 3 2 6 9 11 16 19 22 24 24 24 24 24
6 7 7 9 9 10 12 9 8 9 6 4 5 5 6 7 7 8 4 2 2 2 2 2 4 4 4 5 5 2 2 4 5 6 6 5 3 1 2 4 2 1 2 2 5 3 4 3 6 6 3 4 5 2 3 4 1 4 4 7 6 3 2 3 4 5 4 3 2 4 6 5 3 5 7 4 5 6 6 8 14 17 17 20 21 20 20 20
7 7 8 10 10 11 12 9 8 9 6 4 6 6 6 7 7 7 4 3 2 3 1 1 2 3 3 5 6 1 1 2 4 6 5 4 3 1 2 2 1 1 3 4 3 1 1 2 4 4 4 4 4 2 4 5 4 3 3 4 5 3 1 4 4 3 1 3 3 3 0 5 5 6 7 5 7 9 6 6 12 14 13 15 16 15 15 17
8 9 9 10 11 12 12 9 9 8 5 4 6 6 6 7 7 6 4 4 3 2 1 1 0 2 3 5 6 2 1 4 2 3 4 3 3 1 3 1 1 1 3 3 1 2 3 3 2 3 4 3 2 3 5 7 6 3 3 3 3 1 4 3 1 1 2 3 3 1 3 3 5 6 5 5 7 9 7 6 9 11 11 11 11 11 12 13
9 9 10 11 11 12 12 11 10 8 5 5 5 6 6 6 6 5 2 2 2 1 1 2 2 1 5 5 4 2 1 3 1 2 3 3 2 0 2 3 5 4 2 4 3 4 3 4 5 5 3 2 4 4 6 8 3 3 3 3 1 1 1 2 4 2 1 3 4 2 2 2 5 6 4 3 4 7 7 6 7 7 6 7 8 8 9 11
9 10 11 12 12 12 12 12 10 8 7 5 5 6 6 6 5 4 4 1 2 1 0 2 2 2 9 4 2 4 2 2 3 2 3 2 2 2 0 2 6 5 2 3 4 4 1 2 5 6 4 4 4 2 4 5 1 2 5 4 4 4 3 3 3 2 2 2 4 4 2 1 4 6 4 2 2 4 6 5 6 5 3 5 7 6 8 11
9 11 11 12 12 12 12 11 10 8 6 5 4 5 5 5 3 4 2 2 1 1 2 2 2 5 9 4 2 5 3 2 5 4 2 2 2 3 4 4 5 5 2 3 1 3 0 1 1 3 3 4 3 2 1 3 2 3 4 2 2 4 4 2 1 3 3 3 5 4 1 1 2 5 4 1 1 2 3 4 6 5 4 6 8 9 10 12
10 11 12 13 12 12 11 10 9 7 5 3 3 3 3 3 4 5 1 3 0 3 3 2 2 4 6 3 2 5 3 4 7 6 2 2 3 4 4 3 2 3 3 4 2 3 2 1 1 1 1 3 5 3 2 2 2 3 2 2 2 3 3 3 3 3 2 4 5 3 2 2 1 5 4 4 5 4 4 5 7 7 12 15 15 16 16 16
11 12 14 14 13 12 11 9 8 5 3 1 2 3 2 2 3 1 2 3 1 2 1 1 2 3 4 2 1 3 3 3 6 5 2 2 2 3 3 1 1 3 4 3 2 5 2 3 2 1 2 2 3 1 2 3 3 3 2 2 3 4 3 3 3 1 2 4 2 2 2 1 4 8 9 9 10 5 5 7 8 11 17 20 19 20 20 22
12 14 15 15 13 12 10 8 6 3 1 0 1 2 5 4 1 3 2 3 1 1 1 1 2 2 2 3 1 2 2 1 4 4 1 0 1 2 2 1 2 1 2 2 2 4 3 3 2 2 1 1 2 2 1 2 1 1 1 2 1 1 3 4 4 3 4 3 2 2 2 2 4 7 8 9 10 8 6 8 10 11 14 17 19 22 23 25
13 15 16 15 13 11 9 7 5 2 1 1 1 3 5 1 4 2 2 4 2 2 1 1 3 2 1 1 2 2 1 1 3 3 2 2 1 1 2 2 0 2 3 1 1 1 1 4 1 1 1 1 1 2 2 2 2 2 2 4 3 3 1 4 4 3 6 4 2 3 1 2 3 4 4 6 11 10 7 7 7 8 11 16 20 23 26 29
14 15 15 14 11 10 9 6 3 1 2 3 3 5 3 3 4 2 3 4 1 2 1 1 3 3 3 3 2 1 1 1 2 2 2 1 1 1 1 2 1 2 3 1 2 1 1 4 3 1 2 1 1 1 2 3 2 1 1 4 1 3 3 2 3 3 2 4 3 2 2 4 4 6 7 6 7 4 6 8 10 13 17 20 24 27 29 33
15 14 13 12 10 9 8 5 2 2 4 3 5 4 4 4 2 3 3 1 1 1 1 3 3 2 4 4 3 3 2 1 3 3 1 1 2 2 2 2 1 1 3 2 2 0 1 4 3 3 2 3 2 1 1 1 1 1 1 1 3 3 5 1 2 1 3 2 4 1 3 5 4 6 7 5 5 6 8 11 15 19 22 23 26 29 31 34
14 13 12 10 9 9 7 4 1 3 4 4 5 2 5 2 1 3 2 0 1 1 2 2 2 1 2 3 3 4 2 2 3 2 2 2 1 3 2 0 1 0 1 2 2 1 1 3 4 2 0 2 2 0 3 4 2 2 1 3 2 2 4 3 1 4 3 2 5 1 3 5 3 4 6 6 8 8 8 10 15 20 23 24 26 30 33 35
13 11 9 8 7 7 5 2 2 4 3 4 2 4 3 1 1 1 2 1 1 1 3 1 2 0 1 1 3 3 3 3 2 2 1 2 0 3 3 1 0 1 0 2 0 0 2 2 6 1 1 3 3 1 2 5 5 3 3 2 1 1 1 1 0 2 2 3 6 3 2 2 3 4 3 4 6 7 7 8 11 15 20 23 26 30 33 35
11 8 6 6 7 6 4 1 3 4 3 3 2 3 1 1 1 1 3 1 1 1 1 2 1 1 2 3 2 3 2 2 1 1 0 1 1 1 2 1 1 0 0 2 1 1 2 1 4 3 2 2 3 1 2 2 4 4 1 2 2 2 3 1 1 2 1 3 5 3 1 2 5 5 3 4 5 4 6 8 7 12 19 22 25 29 33 35
10 6 3 5 6 5 2 1 3 3 3 1 4 2 1 2 1 2 3 2 1 1 1 2 1 0 2 3 2 1 1 0 2 1 1 1 1 1 2 1 2 2 1 0 1 0 2 2 4 4 2 1 1 2 4 4 2 2 1 1 1 0 1 1 0 2 2 2 3 4 4 4 4 4 4 4 4 5 6 6 7 14 22 24 26 29 32 35
9 5 2 5 6 3 0 1 2 3 3 1 2 1 0 1 1 2 3 3 1 1 1 2 3 2 2 1 1 1 0 0 1 1 2 2 1 1 2 2 1 2 1 1 1 0 1 2 2 3 4 2 3 2 2 5 5 4 3 4 3 2 2 1 3 1 2 2 4 3 7 7 4 3 4 1 3 5 8 8 10 20 27 28 30 32 33 35
7 3 4 7 5 1 1 2 2 3 3 2 1 1 1 1 1 1 3 4 1 0 1 1 2 2 2 1 1 2 1 1 1 2 2 3 2 1 1 0 0 1 2 1 1 1 1 3 1 4 5 3 2 1 0 2 4 4 2 2 3 3 4 3 4 3 1 1 2 1 4 7 4 3 4 3 4 7 13 16 19 27 31 30 31 34 36 35
7 5 6 6 3 1 1 2 3 3 1 1 1 1 2 1 1 1 2 3 1 0 0 0 1 1 1 1 1 2 2 2 3 3 2 3 2 2 2 1 1 1 2 1 1 0 1 2 1 4 5 3 3 3 2 2 3 3 1 1 3 2 3 5 4 2 2 2 1 1 4 5 3 3 5 1 6 13 20 24 26 29 32 32 32 35 36 36
9 7 4 3 3 1 1 1 1 3 3 1 2 1 1 2 2 1 1 2 2 1 1 0 1 1 1 1 2 2 2 1 2 2 1 2 2 2 1 2 2 1 2 2 2 2 1 1 2 3 6 6 5 5 5 4 0 2 2 0 2 3 5 2 2 3 1 4 6 4 6 4 2 3 5 7 11 15 22 28 30 30 32 33 35 37 37 36
7 4 2 2 3 1 1 2 2 1 1 1 2 2 1 1 2 2 2 1 2 2 1 0 1 2 1 2 1 1 1 1 2 2 1 1 3 1 1 1 2 1 2 2 3 3 2 1 2 1 3 4 5 5 3 2 2 1 1 1 3 3 5 2 1 2 2 5 6 5 8 8 6 10 11 9 10 13 19 27 32 33 32 33 35 37 38 37
4 2 2 3 4 3 3 3 2 2 2 0 2 2 1 0 1 2 2 1 1 2 1 0 2 2 1 1 0 2 2 1 0 1 1 2 3 1 0 1 1 2 2 2 2 2 2 0 2 5 6 7 8 6 1 2 2 4 3 4 5 4 5 4 2 2 3 2 3 6 9 13 15 14 11 9 10 11 15 22 28 31 33 33 33 35 36 33
2 0 2 3 3 4 6 5 5 3 2 2 1 1 1 2 2 1 2 2 1 2 1 0 1 2 2 2 1 2 2 1 1 1 2 3 4 3 1 1 1 1 2 2 1 2 4 1 4 6 9 11 9 7 3 2 3 7 6 6 5 4 5 5 5 7 3 1 4 7 7 11 15 15 11 11 11 10 13 20 26 29 32 33 33 35 33 28
3 0 1 0 1 1 2 4 5 3 3 2 1 1 0 2 3 1 2 1 0 2 2 1 2 4 5 4 2 1 2 2 1 2 2 2 3 3 2 1 1 1 1 1 0 3 4 3 3 3 8 11 8 9 8 3 5 5 4 8 7 4 7 8 10 10 4 3 9 11 9 11 16 16 12 11 12 14 17 24 28 31 32 33 35 35 30 26
2 1 0 1 2 2 2 3 3 3 3 2 1 1 1 2 3 3 2 1 1 1 2 1 4 4 4 4 2 1 2 1 2 4 2 2 2 1 2 1 1 2 3 2 2 2 3 3 2 1 6 11 9 8 6 2 3 4 5 8 7 6 9 9 10 10 7 9 14 15 15 16 14 12 11 14 19 22 23 26 29 30 31 33 36 34 28 28
2 1 1 1 2 1 1 1 1 3 2 1 0 1 2 4 4 3 2 3 1 1 2 3 5 3 2 3 4 4 6 5 3 4 3 2 2 2 2 2 2 3 3 2 1 2 2 3 1 3 3 9 6 4 3 3 3 4 7 7 4 3 5 5 6 6 5 8 12 12 13 13 9 9 13 20 24 23 22 25 29 31 33 35 35 29 26 31
3 3 3 1 1 0 1 1 2 3 1 0 1 1 1 3 4 2 2 4 4 2 4 5 3 1 1 1 4 7 7 5 5 5 4 3 3 3 2 1 3 3 1 0 0 1 2 1 1 4 3 6 3 6 6 2 2 2 5 7 6 3 2 3 4 5 5 8 10 8 7 6 6 10 17 22 23 21 20 23 27 32 37 37 30 23 27 36
3 3 3 1 1 1 0 1 2 2 1 2 2 2 1 3 3 2 1 3 3 2 4 5 4 2 0 2 5 6 6 4 5 6 4 4 5 4 2 3 4 4 4 3 1 1 2 2 1 2 2 5 4 6 8 4 4 1 1 4 6 5 4 4 4 5 6 6 5 5 4 5 8 12 16 19 19 20 21 23 26 32 37 33 25 25 34 42
Wind_Direction
34 39 34 35 36 42 50 60 78 86 91 95 92 94 101 103 101 100 85 63 79 95 101 100 88 88 90 87 79 68 61 48 35 51 91 63 59 72 78 102 129 148 163 174 175 173 135 118 166 148 144 140 115 109 112 107 107 107 101 90 155 176 198 190 179 183 153 172 193 180 179 171 172 185 186 184 189 194 193 199 208 215 219 222 219 212 197 192
25 33 33 33 36 46 56 67 84 97 103 95 82 87 96 97 100 67 19 13 38 73 106 104 87 83 80 71 61 49 33 27 33 48 56 45 38 44 48 125 150 158 152 163 182 191 133 122 136 148 167 137 95 107 119 85 73 84 102 108 200 194 194 186 171 175 152 157 179 178 186 187 190 184 178 184 194 189 197 210 217 224 222 222 219 211 203 195
19 26 29 31 36 56 71 79 90 107 115 98 82 95 87 37 345 351 349 339 343 309 177 108 81 54 34 14 351 338 335 354 22 25 31 26 16 25 22 197 172 177 170 173 186 182 120 111 108 132 143 115 80 99 96 51 56 72 96 109 234 200 178 187 172 177 177 158 168 175 190 195 200 185 183 197 194 196 214 211 213 223 222 219 217 214 208 201
18 20 28 30 31 59 86 91 92 101 106 96 106 134 239 342 345 348 357 344 318 278 240 160 54 10 4 352 340 312 278 345 20 13 13 7 5 14 12 346 193 199 193 189 189 163 112 98 95 114 114 96 59 79 54 29 51 83 96 150 223 172 132 156 166 173 181 168 176 178 178 197 201 189 191 185 166 225 231 220 218 226 226 222 220 221 213 207
17 18 32 35 34 60 92 101 93 89 84 45 321 298 290 296 302 303 326 334 315 285 258 265 325 349 357 356 1 10 215 355 358 357 2 0 2 2 6 6 243 218 200 199 198 169 127 101 106 94 91 75 33 61 38 29 78 78 34 171 159 133 114 147 151 153 179 177 178 170 165 199 192 193 203 191 187 232 235 232 229 228 230 229 229 229 217 211
12 19 36 44 47 62 81 95 80 51 2 331 319 319 313 307 300 291 300 316 319 307 290 289 301 333 353 3 17 36 113 71 343 349 0 2 3 358 2 1 298 231 212 202 197 184 170 135 126 96 79 61 31 66 56 29 86 83 27 108 112 95 122 149 160 162 188 185 179 175 186 197 181 202 216 207 223 234 237 240 231 227 227 230 232 231 223 218
7 19 39 49 47 53 56 58 42 357 328 321 328 343 343 336 331 307 302 316 329 328 319 313 304 312 338 5 14 25 66 68 5 356 2 4 6 359 357 355 352 225 211 202 204 201 187 171 139 114 88 73 81 87 62 50 74 97 104 128 97 90 131 154 182 195 206 201 201 193 198 200 192 215 224 223 237 239 238 240 232 229 227 228 229 228 229 228
7 15 34 37 22 18 17 15 8 345 330 321 332 357 9 9 22 27 1 4 7 358 346 346 341 320 333 352 350 1 32 28 9 7 7 5 7 3 358 353 9 63 198 206 211 202 198 186 152 123 91 83 123 110 69 70 56 70 129 164 117 108 139 155 189 205 204 205 213 204 204 218 216 228 246 243 249 244 238 240 238 234 229 229 232 231 231 230
6 8 13 7 351 348 344 345 345 331 318 306 321 2 23 29 36 47 50 48 41 28 17 23 25 332 305 326 327 346 9 2 2 13 11 7 9 13 9 4 19 40 165 205 214 220 220 184 176 171 148 130 120 89 53 72 27 71 129 143 128 112 131 148 169 166 176 200 197 200 220 238 231 249 266 257 257 250 242 239 239 237 232 230 234 235 233 232
357 357 3 352 339 341 340 340 338 328 310 292 302 352 16 27 36 59 87 74 56 45 35 39 35 3 336 318 319 40 360 349 1 14 11 8 17 23 15 16 27 33 51 179 215 220 208 189 183 165 141 127 108 57 31 61 111 118 117 110 103 104 121 150 178 141 151 201 187 203 249 240 218 188 265 262 256 248 244 239 237 236 233 233 237 238 236 236
348 357 1 348 345 348 348 346 346 335 307 290 287 313 345 10 15 13 131 101 57 36 30 36 26 14 9 360 60 86 2 350 9 17 12 10 27 36 30 40 38 33 36 49 97 182 189 172 162 154 131 129 108 62 62 92 112 116 113 94 42 31 274 274 228 181 182 209 208 246 268 224 180 177 250 260 259 250 246 239 236 235 235 236 238 239 237 239
351 6 7 353 352 357 2 13 22 25 4 326 304 307 317 324 327 334 332 125 40 19 25 29 12 357 337 356 52 65 20 9 14 20 28 15 33 53 57 53 39 34 34 34 62 98 127 143 151 155 133 139 129 70 87 104 111 106 95 89 349 9 319 275 272 228 253 272 271 303 285 228 180 223 248 256 255 249 244 238 236 236 238 239 239 240 239 241
354 7 10 360 2 13 26 35 36 39 34 28 10 344 329 312 303 318 333 288 339 355 357 347 354 354 323 3 48 45 27 23 12 16 36 9 43 79 56 42 27 27 29 31 71 109 132 151 155 135 131 131 121 112 116 101 103 98 59 75 333 2 325 273 301 278 261 240 242 33 298 263 211 232 248 253 247 241 237 237 237 238 240 241 241 241 242 243
359 19 20 15 27 37 25 25 27 24 23 23 17 6 348 329 314 314 322 312 327 336 320 318 333 341 346 78 55 35 29 23 5 5 30 22 161 123 33 25 21 20 22 34 81 127 129 145 150 127 121 116 119 120 107 54 66 93 17 29 30 344 289 284 290 246 209 216 179 107 273 271 257 253 252 243 240 236 238 241 241 242 243 244 243 244 246 247
16 50 42 37 47 47 21 19 22 21 25 18 11 7 357 345 331 318 298 302 336 343 319 329 348 325 121 90 63 32 23 9 5 17 50 169 196 196 13 16 20 21 26 42 85 121 118 128 131 109 103 113 121 113 57 13 29 40 331 312 344 186 267 299 301 187 206 221 174 135 245 274 277 276 263 240 237 235 240 247 247 247 248 247 247 246 249 251
34 53 54 52 40 19 355 353 3 25 41 31 21 13 4 352 329 316 303 299 327 350 331 325 348 316 109 76 58 32 22 10 17 21 32 134 203 219 1 11 20 22 36 57 83 113 119 118 108 96 104 120 118 96 59 42 349 2 86 249 251 192 277 313 330 205 222 196 205 193 241 278 276 269 254 231 234 234 240 251 252 252 252 250 250 249 251 254
47 71 61 3 351 349 351 356 18 44 37 15 5 356 351 351 335 308 306 304 304 335 329 291 317 330 64 40 34 24 23 22 14 5 18 134 186 185 13 12 18 20 40 69 79 103 115 111 117 104 86 89 80 91 72 348 295 322 12 253 242 208 242 301 309 311 346 157 245 224 223 260 264 263 257 248 247 242 243 254 257 255 255 253 252 251 251 254
54 60 17 5 28 44 54 54 42 18 352 334 328 324 325 331 328 306 307 297 279 299 287 316 339 325 62 29 29 7 17 24 9 350 329 196 184 169 17 1 4 4 15 58 57 44 62 100 118 94 23 26 31 90 122 238 213 203 228 249 291 272 229 255 272 281 51 304 252 226 239 260 266 268 263 260 258 250 249 256 259 257 257 256 254 253 253 255
46 47 64 76 68 53 37 14 355 343 335 325 316 311 313 315 312 318 322 289 266 265 245 342 18 123 154 18 20 351 15 30 15 356 265 208 189 199 259 354 346 355 1 325 358 26 57 81 90 98 278 272 267 136 172 196 165 164 186 178 225 270 262 237 247 260 149 304 261 235 244 263 271 272 266 263 256 249 252 256 255 254 254 254 255 255 255 256
51 87 102 81 39 16 4 355 349 346 345 340 328 319 322 319 303 336 357 22 106 111 124 22 53 95 89 19 18 2 332 4 3 356 298 231 219 223 260 330 333 18 27 299 305 8 49 81 172 208 218 205 189 161 152 142 119 119 126 155 209 241 274 253 254 292 95 283 267 240 244 266 273 273 273 269 252 240 245 248 249 249 250 251 253 256 257 258
63 98 94 26 7 5 5 1 354 353 356 3 14 24 15 6 24 16 19 71 87 92 90 77 71 68 50 16 10 11 301 294 349 347 331 272 233 230 272 332 35 38 9 286 269 360 52 144 231 222 206 174 154 135 106 92 82 88 124 183 260 224 258 262 225 310 12 99 270 258 265 274 276 278 280 265 231 230 237 237 243 246 247 251 253 257 260 263
61 69 33 9 9 9 8 5 360 359 4 19 33 47 43 36 44 25 9 94 96 89 83 68 61 51 44 19 6 12 350 225 354 348 350 309 237 235 273 44 75 65 345 5 304 354 21 232 236 193 154 112 82 79 82 89 93 85 118 145 289 250 269 293 342 345 6 215 278 310 305 282 279 283 286 248 223 238 244 240 246 249 248 252 254 259 263 267
50 37 23 15 13 8 4 1 2 5 5 15 22 28 32 28 24 9 357 108 108 85 77 56 50 40 34 27 12 14 34 71 2 359 5 345 188 40 347 85 81 121 14 32 175 329 314 250 210 157 139 101 69 52 83 99 112 121 124 142 271 279 306 283 317 338 268 228 283 300 294 277 280 294 307 266 234 248 258 253 253 252 251 255 258 262 265 267
40 27 18 11 7 3 358 353 357 3 354 350 1 4 13 11 7 356 348 97 85 70 81 41 33 36 31 20 4 12 60 64 26 6 10 28 104 41 39 99 90 122 16 87 151 171 247 241 150 137 123 105 122 116 109 122 312 287 176 190 239 260 231 234 290 324 296 299 309 307 302 274 290 314 307 327 304 266 273 267 258 252 251 256 259 262 264 267
24 17 11 5 2 358 354 349 350 354 348 340 338 337 351 357 0 354 357 76 13 344 58 30 28 41 31 8 355 349 78 58 34 12 14 34 59 50 80 100 100 159 198 154 132 178 248 198 152 131 74 93 133 211 193 156 309 306 235 209 205 197 235 272 326 342 345 341 318 357 336 290 321 318 282 316 349 308 293 273 266 260 253 253 257 263 269 273
4 0 0 357 355 355 352 347 344 342 340 338 329 329 341 347 356 353 7 64 358 316 352 20 24 21 6 4 2 4 3 9 16 13 20 24 19 118 131 89 52 113 176 157 128 209 201 135 150 134 111 97 93 256 234 155 123 302 258 187 160 141 315 319 346 359 339 282 287 67 275 269 317 311 289 323 325 309 305 274 272 272 262 255 259 271 277 280
353 349 350 347 347 349 350 348 341 337 334 331 333 338 338 344 352 342 360 41 4 306 332 321 344 8 360 0 5 36 322 319 335 8 21 18 8 138 202 263 84 161 170 147 308 263 137 110 112 110 109 107 102 254 224 141 123 246 230 134 104 12 299 289 104 181 239 279 314 64 174 256 303 285 289 329 319 318 325 302 284 276 266 260 264 275 281 286
344 342 341 340 339 342 347 348 341 337 330 323 334 343 343 347 342 342 57 59 337 333 5 331 166 57 359 356 12 58 322 329 7 345 358 11 358 99 231 227 174 180 160 152 244 271 141 161 192 155 115 181 220 228 187 147 132 248 193 120 66 38 272 158 134 184 280 351 316 290 155 216 274 274 306 347 333 325 316 298 291 281 262 256 261 273 288 297
340 338 337 336 335 337 341 343 340 334 328 325 334 342 350 344 330 13 80 128 315 52 62 347 179 298 340 351 32 33 36 19 27 343 345 28 350 4 117 158 139 133 81 137 207 252 145 187 198 156 149 216 227 240 173 154 131 184 141 93 64 65 58 85 108 124 56 5 265 250 164 184 273 283 309 2 17 301 284 277 280 276 241 235 255 278 298 308
337 337 337 333 333 333 335 339 340 333 327 329 336 344 355 350 8 58 45 255 318 352 292 329 271 307 342 5 7 12 48 17 1 1 13 74 23 42 105 113 108 116 39 14 181 239 340 53 207 158 178 196 147 59 101 122 110 138 119 55 43 43 41 53 71 92 65 303 257 252 249 105 302 282 266 233 181 215 259 301 288 278 279 282 295 308 311 314
336 338 336 334 333 331 332 338 338 336 333 331 345 351 349 356 64 89 284 252 132 343 335 353 316 346 18 42 342 355 18 357 0 18 22 26 23 37 83 108 56 59 5 354 328 298 353 62 238 230 195 144 105 71 31 61 102 112 75 19 346 340 12 21 354 46 77 264 263 281 293 120 233 272 255 250 263 225 219 279 292 304 314 319 324 325 323 322
336 337 337 337 335 331 334 339 340 340 333 346 5 344 11 36 32 122 269 311 357 333 2 335 318 26 30 14 337 333 337 342 7 36 55 16 19 23 45 173 207 5 337 313 315 325 310 227 275 12 151 141 120 103 359 13 52 74 60 42 9 340 353 344 314 314 220 238 276 334 322 204 231 258 266 271 282 272 232 256 280 302 314 325 335 337 337 335
334 335 338 337 335 333 334 337 339 335 303 7 31 12 67 76 272 235 271 323 334 333 15 298 325 29 7 341 334 315 303 289 3 31 99 22 14 1 350 216 173 54 294 254 325 349 330 293 345 56 182 108 135 166 260 326 63 139 186 108 82 11 355 307 284 299 281 259 317 325 304 286 266 271 263 254 279 301 299 291 295 304 316 332 343 346 345 343
332 334 336 335 336 334 335 337 328 299 231 154 86 55 62 50 241 212 282 274 271 351 15 26 348 4 28 353 294 293 320 305 353 23 13 8 22 337 324 282 14 89 113 126 291 73 335 297 321 127 278 2 92 181 171 141 121 191 182 122 144 162 184 266 252 273 290 299 319 308 282 196 220 274 261 254 285 305 321 316 319 340 348 349 349 348 346 345
331 333 333 334 337 336 338 336 305 246 179 160 71 68 105 241 248 195 247 257 286 337 307 52 34 17 344 330 309 322 99 285 325 23 1 357 175 204 236 241 262 104 119 142 267 147 168 263 268 323 307 74 82 225 137 101 87 244 151 107 154 177 159 239 212 190 293 324 303 274 237 214 225 282 302 308 307 351 40 18 18 17 5 355 348 346 346 345
329 330 330 331 335 338 342 329 277 193 186 154 67 72 187 224 239 183 204 241 41 262 310 358 32 31 324 318 337 4 59 255 316 358 323 259 201 191 188 225 231 121 127 161 224 166 17 278 298 352 349 60 64 245 81 56 211 164 102 178 224 170 121 103 277 26 58 317 279 234 247 286 319 306 310 348 3 24 25 11 14 8 355 349 345 344 345 344
328 326 326 328 332 340 343 324 229 191 194 123 86 198 218 213 191 183 175 121 201 147 63 4 339 19 308 308 315 324 349 309 316 349 287 273 230 176 168 212 221 173 140 162 227 216 144 279 304 13 51 12 23 354 35 45 92 111 170 227 225 107 86 93 293 347 32 264 274 225 235 293 340 303 315 6 3 349 351 358 2 355 345 341 340 341 341 341
331 327 324 330 340 344 343 328 202 186 164 95 97 240 223 165 202 183 162 155 177 83 83 165 259 339 171 261 288 287 322 318 321 6 293 280 301 159 144 115 14 349 45 132 220 333 118 290 305 332 178 307 352 52 9 22 50 102 174 195 89 141 284 47 94 314 341 291 284 257 230 272 235 242 304 347 333 326 337 352 353 340 335 335 335 337 339 339
336 331 329 343 350 349 351 350 188 174 117 84 226 246 218 230 269 161 170 175 131 111 128 205 254 15 160 182 244 281 330 306 288 24 282 263 329 145 128 131 177 327 14 122 124 262 107 93 289 276 224 298 6 102 231 325 31 56 70 7 40 158 189 166 146 181 208 285 288 290 330 252 235 213 198 280 307 349 354 346 332 321 327 333 334 336 337 338
339 334 333 344 345 342 351 126 161 140 87 145 211 207 274 269 245 181 184 185 145 144 205 206 171 344 227 209 237 282 13 208 197 171 255 259 295 342 39 51 143 154 239 62 101 333 62 116 256 289 314 300 289 208 197 181 133 75 66 321 318 192 178 229 214 148 153 226 260 289 290 256 242 204 197 272 336 34 359 323 304 322 334 338 338 337 337 337
346 346 329 336 338 327 324 102 92 80 92 184 214 188 255 255 190 201 195 185 181 177 186 171 156 177 219 229 253 231 188 292 197 206 265 242 223 332 8 22 92 136 137 70 92 347 59 152 215 293 314 265 245 247 185 174 165 152 176 201 188 153 132 260 289 272 113 177 197 250 287 272 242 195 201 257 51 23 339 321 323 335 340 339 338 337 336 335
355 356 320 329 329 264 166 77 43 56 115 176 251 207 218 248 177 195 194 191 208 123 139 135 152 170 173 189 219 187 181 255 206 208 245 212 197 272 300 25 22 163 140 120 242 227 137 112 131 271 265 252 272 326 86 177 148 131 164 177 147 136 132 161 247 257 148 235 190 138 279 274 262 184 174 131 61 358 342 344 342 338 337 336 336 335 334 333
347 330 312 323 320 227 207 359 355 1 86 173 221 205 206 217 173 161 197 200 207 61 45 304 184 186 216 206 157 170 199 214 191 194 231 228 232 295 269 185 157 170 137 134 248 144 118 87 34 282 283 324 348 5 20 40 97 111 291 128 144 163 138 161 198 189 181 224 196 358 275 267 269 193 182 155 6 353 349 349 344 335 331 333 333 331 331 331
336 321 305 327 333 269 198 205 319 311 300 342 26 355 249 231 211 193 222 225 212 162 134 237 195 184 210 132 115 187 205 211 224 225 225 216 235 314 319 158 157 155 148 172 158 125 200 220 55 330 322 338 349 355 349 339 51 183 234 217 176 135 99 112 162 106 257 226 183 215 266 253 231 282 302 338 354 351 347 343 337 330 328 329 329 329 329 328
336 321 315 1 357 355 166 160 150 189 269 354 360 341 332 285 236 214 222 240 218 184 161 301 188 155 110 89 96 219 216 205 265 304 15 244 248 289 55 175 188 171 146 158 144 134 193 212 124 114 302 300 302 312 307 278 271 234 149 222 230 169 139 169 171 100 267 238 178 196 266 276 290 306 316 334 347 343 339 336 331 326 324 325 326 326 325 325
352 339 346 360 7 39 79 92 95 118 144 124 322 326 19 316 269 242 224 229 230 203 197 200 155 122 68 77 146 265 264 258 333 347 330 254 260 271 183 201 185 160 137 122 125 108 91 224 198 184 205 233 255 262 218 95 306 286 274 247 230 194 157 133 103 179 205 224 207 220 256 281 293 298 306 327 337 332 329 327 323 319 319 321 322 321 320 322
20 45 349 344 350 33 68 63 42 54 136 167 218 272 252 271 310 320 207 212 221 207 202 154 161 164 172 179 197 246 258 321 24 262 236 235 260 291 265 207 172 167 151 132 145 100 87 294 248 203 226 247 262 277 309 51 273 264 269 267 247 198 159 151 206 232 209 7 278 237 240 275 287 294 310 325 326 322 319 317 316 314 316 318 318 318 318 320
20 327 324 299 288 3 50 10 11 62 113 129 162 172 329 304 312 285 206 208 217 200 199 325 258 221 200 182 153 202 262 327 285 239 234 245 280 333 348 242 164 57 94 106 46 105 118 250 257 199 256 271 277 282 281 264 264 261 248 263 262 210 176 189 229 244 221 234 263 264 270 278 284 295 309 313 311 311 312 312 312 312 314 318 319 319 320 324
11 358 332 210 241 220 213 317 353 93 103 72 98 185 175 199 256 255 194 120 359 245 186 234 267 247 214 189 148 181 235 250 278 264 222 201 260 315 326 275 120 54 39 63 19 69 133 234 247 165 284 284 277 282 280 231 274 300 267 261 258 225 206 209 239 256 239 239 258 273 283 281 280 287 294 300 306 309 310 312 312 313 316 320 319 319 322 328
339 314 277 233 241 204 156 326 43 97 69 43 110 243 181 175 230 264 193 171 266 280 172 211 255 248 207 187 171 213 222 190 208 249 196 173 284 240 226 226 137 68 26 55 30 42 143 244 246 103 308 291 292 346 27 144 187 273 284 289 294 260 236 222 245 262 256 255 260 270 282 282 276 284 295 303 311 313 313 315 315 316 318 319 317 318 323 329
317 298 292 254 220 169 22 342 91 92 25 311 192 242 206 196 222 249 235 210 209 207 192 197 202 136 83 178 204 242 252 212 218 251 216 209 258 236 234 230 150 123 77 104 65 88 143 240 5 59 347 289 318 13 345 281 179 264 305 335 340 314 257 220 229 225 228 260 278 285 283 276 290 309 308 309 314 315 316 317 317 317 318 316 314 318 326 329
314 296 283 256 272 288 83 57 66 70 293 243 192 194 232 236 218 185 298 254 212 219 233 204 175 139 55 238 230 256 283 272 265 279 272 255 257 255 249 205 160 143 158 160 108 67 130 134 102 52 317 272 304 336 315 331 41 355 313 16 343 300 274 273 271 256 238 239 270 283 263 276 309 318 315 316 319 319 318 319 317 315 314 313 318 326 329 329
Height
1549 1549 1549 1548 1548 1548 1548 1548 1547 1547 1548 1548 1548 1548 1548 1548 1548 1547 1547 1547 1547 1547 1547 1547 1546 1546 1546 1545 1545 1545 1545 1545 1545 1545 1544 1545 1545 1545 1544 1544 1545 1545 1545 1545 1545 1545 1545 1544 1544 1544 1543 1544 1544 1544 1545 1546 1546 1546 1551 1555 1556 1564 1564 1560 1563 1564 1562 1562 1564 1565 1565 1567 1568 1569 1569 1570 1570 1569 1569 1569 1568 1568 1568 1568 1568 1568 1569 1569
1550 1550 1549 1549 1549 1549 1548 1548 1548 1548 1548 1549 1549 1549 1549 1548 1548 1548 1548 1548 1548 1548 1548 1547 1547 1547 1547 1546 1546 1546 1546 1546 1545 1545 1545 1545 1545 1545 1545 1544 1545 1545 1545 1545 1545 1545 1545 1544 1544 1544 1544 1544 1545 1545 1546 1546 1546 1548 1554 1554 1553 1559 1559 1556 1559 1560 1561 1560 1561 1564 1565 1565 1566 1567 1568 1568 1568 1568 1568 1567 1567 1566 1566 1566 1566 1567 1567 1568
1550 1550 1550 1549 1549 1549 1549 1549 1548 1549 1549 1549 1549 1549 1549 1549 1548 1548 1548 1548 1548 1548 1548 1548 1547 1547 1547 1547 1546 1546 1546 1546 1545 1546 1546 1545 1545 1545 1545 1544 1544 1545 1545 1545 1545 1545 1544 1544 1544 1544 1544 1544 1545 1546 1546 1547 1547 1549 1552 1550 1552 1557 1557 1557 1558 1559 1560 1559 1561 1563 1564 1565 1565 1566 1567 1567 1567 1568 1566 1564 1564 1564 1563 1564 1564 1565 1566 1566
1550 1550 1550 1550 1549 1549 1549 1549 1549 1549 1549 1549 1549 1549 1549 1549 1548 1548 1548 1548 1548 1548 1548 1548 1548 1547 1547 1547 1546 1545 1545 1545 1546 1546 1546 1545 1545 1545 1544 1544 1544 1544 1544 1545 1545 1545 1544 1544 1544 1544 1544 1545 1546 1546 1547 1548 1548 1550 1551 1550 1554 1556 1556 1557 1558 1559 1560 1560 1561 1562 1563 1564 1564 1565 1565 1565 1566 1565 1562 1560 1560 1561 1561 1562 1562 1563 1564 1564
1551 1550 1550 1550 1550 1549 1549 1549 1549 1549 1549 1549 1549 1549 1549 1549 1548 1548 1548 1548 1548 1548 1548 1548 1548 1547 1547 1547 1545 1545 1545 1546 1546 1546 1546 1545 1544 1544 1544 1544 1544 1544 1544 1544 1544 1544 1544 1544 1544 1544 1544 1545 1546 1546 1548 1549 1548 1551 1554 1555 1556 1556 1556 1558 1559 1559 1559 1560 1561 1562 1563 1562 1563 1564 1563 1563 1562 1559 1558 1557 1558 1559 1560 1561 1561 1561 1561 1562
1551 1551 1550 1550 1550 1550 1550 1549 1549 1549 1549 1549 1549 1549 1549 1548 1548 1548 1548 1548 1548 1548 1548 1548 1548 1548 1547 1547 1546 1545 1545 1547 1547 1546 1546 1545 1544 1544 1543 1544 1543 1543 1543 1544 1544 1544 1544 1544 1544 1545 1545 1547 1549 1548 1549 1550 1549 1550 1555 1557 1556 1557 1557 1558 1559 1559 1560 1560 1560 1561 1561 1561 1561 1561 1560 1560 1556 1554 1555 1556 1557 1558 1559 1559 1559 1559 1559 1559
1551 1551 1551 1551 1550 1550 1550 1550 1550 1549 1549 1549 1549 1549 1548 1548 1548 1548 1548 1548 1548 1548 1548 1548 1548 1548 1547 1547 1547 1546 1546 1547 1547 1546 1545 1545 1544 1543 1543 1543 1543 1543 1543 1543 1543 1544 1544 1544 1544 1545 1546 1548 1549 1549 1549 1550 1549 1550 1554 1557 1557 1557 1558 1558 1560 1560 1560 1560 1560 1560 1560 1560 1560 1559 1559 1555 1552 1553 1554 1555 1556 1556 1556 1557 1557 1557 1557 1557
1552 1551 1551 1551 1551 1551 1550 1550 1550 1549 1549 1549 1549 1549 1548 1548 1548 1548 1548 1548 1548 1548 1548 1548 1547 1547 1547 1547 1547 1547 1546 1546 1546 1546 1545 1545 1544 1544 1543 1543 1543 1543 1543 1543 1543 1543 1543 1544 1544 1544 1546 1548 1549 1549 1550 1549 1550 1551 1555 1557 1557 1558 1559 1559 1560 1560 1560 1560 1560 1560 1559 1559 1559 1559 1556 1550 1549 1551 1552 1552 1554 1554 1554 1554 1554 1554 1555 1556
1552 1552 1551 1551 1551 1551 1550 1550 1550 1549 1549 1549 1550 1549 1549 1548 1548 1548 1548 1549 1549 1549 1548 1548 1547 1547 1547 1547 1547 1547 1547 1547 1546 1546 1545 1545 1544 1544 1544 1544 1543 1543 1542 1543 1543 1543 1543 1543 1543 1544 1545 1548 1549 1549 1550 1549 1550 1553 1555 1556 1558 1559 1560 1560 1560 1560 1560 1559 1560 1559 1560 1559 1559 1559 1552 1545 1547 1548 1549 1550 1551 1552 1552 1551 1552 1552 1553 1554
1552 1552 1551 1551 1551 1551 1550 1550 1550 1549 1549 1549 1550 1549 1549 1549 1549 1549 1549 1549 1549 1549 1548 1548 1548 1548 1547 1547 1547 1547 1547 1547 1546 1546 1545 1545 1545 1544 1545 1544 1543 1543 1543 1542 1542 1542 1543 1543 1543 1544 1544 1547 1549 1550 1550 1550 1551 1554 1555 1557 1558 1559 1560 1560 1559 1560 1559 1559 1560 1559 1559 1558 1559 1560 1549 1541 1545 1546 1546 1548 1548 1549 1549 1549 1550 1551 1551 1552
1552 1552 1552 1551 1551 1551 1550 1550 1550 1549 1549 1549 1550 1549 1549 1549 1549 1549 1549 1549 1549 1549 1549 1548 1548 1548 1548 1547 1547 1547 1547 1546 1546 1546 1545 1545 1545 1545 1545 1545 1544 1543 1543 1542 1542 1542 1542 1542 1543 1543 1544 1546 1549 1550 1551 1552 1554 1555 1555 1557 1559 1560 1560 1560 1560 1560 1560 1560 1559 1559 1559 1558 1560 1557 1546 1541 1543 1544 1544 1545 1546 1546 1547 1548 1548 1549 1549 1549
1552 1552 1552 1552 1551 1551 1551 1550 1550 1550 1550 1550 1550 1550 1550 1549 1549 1549 1549 1549 1549 1549 1549 1549 1548 1548 1548 1547 1547 1547 1547 1546 1546 1546 1546 1545 1545 1546 1546 1545 1544 1544 1543 1542 1542 1542 1542 1543 1543 1543 1544 1546 1549 1551 1553 1554 1556 1556 1557 1558 1560 1561 1560 1559 1560 1560 1560 1559 1559 1559 1554 1551 1555 1549 1539 1541 1542 1542 1543 1543 1543 1544 1544 1545 1546 1546 1547 1547
1553 1552 1552 1552 1552 1551 1551 1551 1551 1550 1550 1550 1550 1550 1550 1550 1549 1549 1549 1549 1549 1549 1549 1548 1548 1548 1548 1547 1547 1547 1547 1546 1546 1546 1546 1546 1546 1546 1546 1545 1545 1544 1544 1543 1542 1543 1543 1544 1544 1544 1545 1547 1550 1551 1553 1556 1556 1556 1559 1560 1561 1561 1558 1558 1560 1559 1559 1559 1558 1560 1550 1539 1543 1542 1537 1541 1541 1540 1541 1540 1541 1542 1542 1543 1543 1544 1544 1544
1553 1552 1552 1552 1552 1552 1552 1552 1551 1551 1551 1550 1550 1550 1550 1550 1549 1549 1549 1549 1549 1549 1549 1548 1548 1548 1548 1548 1548 1547 1547 1547 1546 1546 1546 1546 1546 1546 1546 1546 1546 1545 1544 1544 1543 1544 1544 1545 1545 1545 1546 1547 1549 1551 1554 1557 1557 1559 1561 1562 1566 1562 1556 1558 1560 1558 1558 1558 1557 1560 1554 1538 1535 1538 1538 1539 1538 1539 1539 1538 1539 1539 1540 1540 1541 1541 1541 1542
1553 1553 1553 1552 1552 1552 1553 1552 1552 1551 1551 1551 1551 1550 1550 1549 1549 1549 1549 1549 1549 1549 1548 1548 1548 1547 1547 1547 1548 1547 1547 1547 1546 1546 1545 1546 1546 1546 1547 1546 1546 1545 1545 1544 1544 1545 1545 1546 1546 1547 1549 1549 1550 1552 1556 1559 1560 1564 1560 1560 1569 1565 1557 1558 1559 1558 1557 1557 1557 1558 1555 1542 1534 1535 1536 1537 1537 1538 1537 1536 1537 1537 1537 1538 1538 1538 1538 1538
1553 1553 1553 1553 1553 1553 1553 1553 1552 1552 1551 1551 1551 1550 1550 1549 1549 1549 1548 1549 1548 1548 1548 1547 1547 1547 1547 1547 1547 1547 1547 1546 1546 1546 1545 1546 1546 1546 1547 1546 1546 1546 1546 1546 1546 1546 1547 1547 1548 1550 1551 1551 1552 1552 1555 1560 1560 1565 1563 1557 1563 1564 1559 1557 1556 1559 1558 1557 1558 1556 1553 1542 1533 1532 1533 1535 1535 1535 1535 1534 1534 1534 1534 1534 1534 1535 1535 1535
1554 1554 1554 1554 1554 1553 1553 1553 1553 1552 1552 1551 1551 1550 1550 1549 1549 1548 1548 1548 1548 1548 1547 1547 1547 1546 1546 1547 1547 1547 1547 1546 1546 1546 1546 1546 1546 1547 1547 1546 1546 1546 1546 1547 1547 1548 1548 1548 1550 1551 1552 1554 1555 1553 1554 1557 1555 1560 1566 1560 1561 1563 1561 1556 1553 1558 1559 1558 1557 1557 1555 1543 1531 1531 1533 1534 1534 1534 1533 1530 1530 1531 1530 1531 1531 1532 1532 1533
1554 1554 1554 1554 1554 1554 1554 1553 1553 1552 1552 1551 1551 1550 1550 1549 1548 1548 1548 1547 1547 1547 1547 1547 1546 1546 1547 1546 1547 1547 1547 1546 1546 1546 1546 1546 1547 1547 1547 1547 1547 1547 1547 1547 1548 1548 1548 1549 1551 1552 1554 1554 1554 1552 1551 1553 1552 1554 1559 1558 1559 1562 1562 1558 1554 1557 1559 1558 1556 1557 1556 1543 1530 1529 1531 1532 1533 1532 1529 1527 1527 1527 1527 1527 1528 1529 1529 1530
1555 1555 1555 1555 1555 1554 1554 1554 1553 1552 1552 1551 1550 1550 1549 1548 1548 1548 1547 1547 1547 1547 1547 1547 1546 1547 1548 1547 1547 1547 1547 1547 1547 1546 1546 1547 1547 1546 1547 1547 1547 1547 1547 1548 1548 1549 1549 1550 1551 1552 1552 1553 1555 1554 1551 1554 1555 1555 1558 1559 1557 1557 1557 1557 1556 1557 1559 1557 1554 1554 1551 1541 1530 1526 1526 1529 1531 1528 1525 1524 1524 1524 1524 1524 1525 1525 1526 1527
1555 1555 1556 1555 1555 1555 1554 1554 1553 1552 1551 1550 1549 1549 1548 1548 1548 1548 1547 1547 1547 1547 1547 1548 1547 1547 1547 1547 1547 1547 1547 1547 1547 1547 1546 1546 1546 1546 1547 1546 1547 1547 1548 1550 1550 1551 1552 1550 1551 1553 1553 1555 1559 1559 1558 1560 1561 1560 1561 1561 1561 1561 1555 1553 1556 1558 1560 1555 1547 1548 1548 1540 1529 1522 1522 1525 1526 1525 1522 1521 1520 1520 1521 1521 1522 1523 1523 1524
1556 1556 1556 1556 1555 1555 1554 1553 1553 1552 1551 1550 1549 1549 1548 1548 1548 1548 1547 1547 1547 1547 1547 1548 1548 1547 1547 1547 1547 1547 1547 1547 1547 1547 1546 1546 1546 1545 1546 1547 1547 1548 1551 1553 1552 1552 1552 1550 1552 1556 1558 1560 1561 1563 1562 1562 1563 1562 1562 1561 1562 1564 1556 1552 1557 1558 1560 1557 1546 1546 1547 1539 1527 1517 1517 1522 1522 1519 1517 1517 1516 1516 1518 1518 1519 1520 1521 1522
1557 1557 1557 1556 1556 1555 1554 1554 1553 1552 1551 1550 1550 1549 1549 1548 1548 1548 1547 1547 1548 1548 1548 1548 1548 1547 1547 1547 1547 1547 1547 1547 1547 1546 1546 1545 1545 1545 1546 1547 1548 1549 1553 1554 1551 1552 1552 1551 1555 1559 1561 1561 1562 1564 1562 1561 1564 1563 1564 1562 1557 1560 1557 1553 1558 1560 1560 1557 1547 1545 1547 1536 1522 1514 1514 1517 1516 1514 1514 1514 1514 1515 1516 1516 1517 1518 1519 1520
1558 1558 1557 1557 1556 1556 1555 1554 1553 1552 1551 1551 1550 1550 1549 1549 1548 1548 1547 1547 1548 1548 1548 1548 1548 1548 1548 1548 1548 1548 1547 1547 1547 1546 1546 1545 1545 1546 1546 1547 1550 1551 1553 1552 1551 1551 1550 1551 1558 1561 1560 1560 1562 1564 1563 1561 1563 1562 1562 1559 1553 1558 1558 1550 1554 1559 1558 1556 1550 1548 1547 1535 1521 1513 1512 1513 1512 1513 1513 1513 1513 1514 1514 1514 1516 1517 1518 1518
1558 1558 1558 1557 1557 1555 1555 1554 1553 1552 1552 1551 1551 1550 1550 1549 1548 1548 1547 1547 1548 1548 1548 1548 1548 1548 1548 1548 1548 1548 1547 1548 1548 1546 1546 1545 1546 1547 1546 1548 1550 1550 1552 1554 1553 1551 1551 1555 1560 1561 1561 1560 1560 1562 1563 1558 1556 1559 1559 1557 1553 1556 1558 1553 1556 1559 1554 1554 1555 1548 1534 1522 1518 1512 1507 1511 1513 1513 1513 1512 1512 1512 1512 1513 1515 1515 1515 1516
1559 1558 1558 1557 1556 1556 1555 1554 1553 1553 1552 1551 1551 1550 1550 1549 1549 1548 1547 1548 1548 1548 1549 1548 1548 1548 1549 1549 1548 1548 1548 1548 1548 1547 1547 1546 1546 1547 1548 1549 1549 1549 1553 1556 1554 1550 1552 1558 1560 1560 1561 1561 1559 1558 1559 1556 1554 1556 1555 1556 1555 1556 1558 1558 1559 1558 1549 1546 1552 1550 1532 1514 1513 1511 1506 1510 1513 1511 1512 1512 1510 1509 1511 1512 1513 1513 1513 1514
1559 1558 1558 1557 1556 1556 1555 1554 1554 1553 1552 1552 1551 1550 1550 1549 1549 1547 1547 1551 1551 1549 1549 1549 1549 1549 1549 1549 1548 1548 1548 1548 1548 1547 1547 1547 1547 1547 1548 1550 1549 1549 1553 1555 1553 1551 1555 1560 1560 1560 1559 1559 1558 1556 1557 1558 1557 1554 1554 1558 1560 1559 1559 1558 1559 1557 1548 1543 1549 1555 1545 1527 1517 1510 1509 1515 1513 1509 1509 1509 1508 1508 1509 1510 1511 1511 1512 1512
1559 1558 1558 1557 1556 1555 1554 1554 1553 1552 1552 1551 1550 1550 1550 1548 1548 1546 1548 1554 1553 1550 1550 1549 1549 1550 1549 1549 1549 1548 1548 1548 1548 1548 1548 1547 1547 1548 1547 1549 1549 1549 1553 1553 1549 1550 1556 1559 1559 1559 1558 1558 1556 1553 1555 1558 1555 1552 1557 1562 1560 1559 1559 1558 1560 1557 1554 1553 1552 1556 1553 1542 1530 1515 1514 1520 1512 1505 1506 1505 1506 1506 1507 1509 1509 1510 1510 1511
1559 1558 1557 1557 1556 1555 1555 1554 1553 1552 1552 1551 1550 1550 1549 1548 1548 1546 1549 1555 1554 1551 1551 1550 1549 1550 1549 1549 1549 1548 1548 1548 1548 1547 1548 1547 1547 1548 1547 1548 1549 1548 1552 1551 1545 1549 1555 1555 1556 1557 1556 1556 1554 1552 1555 1556 1553 1554 1561 1562 1560 1561 1560 1561 1562 1559 1564 1559 1544 1549 1553 1543 1531 1516 1515 1520 1510 1504 1504 1504 1505 1505 1505 1507 1507 1509 1509 1509
1559 1558 1557 1557 1556 1555 1554 1553 1553 1552 1551 1551 1550 1549 1549 1548 1547 1547 1552 1556 1553 1552 1551 1550 1549 1549 1549 1549 1549 1549 1548 1548 1548 1547 1548 1548 1547 1547 1547 1548 1549 1549 1552 1551 1547 1550 1553 1553 1554 1554 1554 1554 1553 1555 1557 1555 1554 1558 1562 1562 1562 1565 1563 1565 1563 1558 1565 1555 1534 1543 1551 1539 1525 1512 1510 1513 1506 1504 1505 1504 1506 1505 1505 1506 1506 1508 1508 1509
1559 1558 1557 1556 1555 1555 1554 1553 1553 1551 1551 1551 1549 1549 1549 1548 1548 1553 1558 1556 1553 1552 1551 1549 1550 1550 1550 1549 1548 1549 1549 1549 1549 1548 1547 1548 1548 1547 1548 1549 1549 1550 1552 1553 1551 1552 1554 1554 1555 1554 1553 1553 1555 1557 1558 1558 1558 1559 1561 1559 1559 1564 1565 1566 1566 1563 1556 1541 1535 1549 1555 1545 1528 1510 1506 1508 1506 1507 1506 1505 1506 1504 1505 1507 1507 1508 1508 1508
1558 1558 1557 1556 1555 1554 1553 1553 1552 1551 1551 1550 1550 1550 1548 1549 1553 1558 1559 1555 1553 1553 1550 1551 1553 1553 1552 1552 1550 1550 1550 1550 1550 1548 1547 1549 1548 1548 1548 1548 1548 1550 1550 1550 1549 1552 1554 1553 1553 1554 1553 1554 1555 1556 1558 1559 1559 1559 1559 1556 1551 1554 1558 1558 1559 1560 1543 1528 1540 1559 1559 1552 1536 1512 1504 1507 1510 1512 1510 1508 1507 1506 1507 1507 1507 1508 1508 1508
1558 1557 1556 1555 1555 1554 1553 1553 1551 1551 1551 1550 1550 1549 1549 1553 1556 1556 1557 1553 1552 1553 1553 1554 1555 1555 1556 1555 1553 1554 1554 1551 1551 1551 1552 1552 1551 1551 1552 1550 1549 1547 1546 1548 1548 1547 1549 1552 1554 1554 1553 1555 1553 1553 1556 1558 1559 1559 1557 1555 1548 1545 1547 1542 1541 1546 1537 1531 1550 1563 1555 1549 1538 1517 1506 1507 1509 1511 1511 1510 1510 1510 1509 1507 1508 1508 1508 1509
1558 1557 1556 1555 1554 1553 1553 1552 1551 1551 1550 1550 1551 1549 1552 1557 1557 1559 1559 1553 1551 1555 1557 1557 1557 1558 1557 1553 1553 1557 1556 1552 1552 1553 1554 1555 1552 1553 1557 1557 1556 1550 1547 1552 1551 1543 1543 1550 1554 1553 1552 1555 1553 1551 1551 1552 1556 1557 1554 1551 1548 1549 1548 1539 1538 1542 1537 1538 1556 1566 1556 1543 1531 1516 1509 1509 1508 1509 1510 1510 1510 1510 1510 1509 1509 1509 1509 1509
1558 1557 1555 1554 1554 1553 1552 1552 1551 1551 1551 1551 1550 1550 1556 1558 1558 1562 1560 1554 1556 1559 1559 1559 1558 1557 1557 1554 1555 1558 1554 1552 1555 1554 1553 1553 1550 1549 1553 1556 1558 1555 1552 1554 1554 1550 1545 1542 1548 1552 1551 1553 1554 1553 1551 1552 1554 1557 1559 1556 1550 1550 1548 1541 1538 1536 1532 1541 1558 1563 1549 1531 1518 1510 1509 1510 1509 1508 1509 1509 1510 1510 1511 1511 1510 1510 1509 1507
1557 1556 1555 1554 1553 1552 1552 1551 1551 1551 1551 1551 1551 1555 1559 1557 1557 1561 1557 1555 1559 1559 1558 1561 1558 1554 1554 1556 1559 1560 1555 1552 1556 1555 1553 1552 1548 1548 1551 1553 1557 1557 1553 1550 1552 1558 1552 1543 1549 1555 1553 1554 1554 1555 1556 1554 1553 1559 1563 1558 1551 1550 1548 1547 1553 1556 1557 1558 1556 1553 1542 1528 1518 1509 1510 1511 1508 1508 1508 1508 1510 1510 1511 1512 1510 1509 1508 1505
1556 1555 1554 1553 1553 1552 1552 1551 1551 1551 1551 1551 1553 1557 1558 1554 1556 1559 1557 1558 1560 1558 1557 1557 1557 1553 1551 1553 1557 1559 1558 1556 1556 1553 1551 1553 1552 1552 1554 1555 1558 1558 1553 1551 1552 1555 1551 1545 1553 1557 1553 1556 1555 1554 1557 1553 1550 1557 1559 1552 1554 1559 1553 1549 1560 1573 1577 1561 1545 1542 1534 1525 1521 1511 1508 1510 1505 1506 1509 1508 1509 1510 1511 1511 1509 1508 1506 1503
1556 1555 1554 1553 1553 1552 1552 1551 1551 1551 1551 1552 1554 1556 1557 1556 1557 1559 1559 1559 1560 1560 1557 1553 1554 1554 1552 1552 1553 1556 1559 1557 1557 1552 1549 1552 1551 1551 1555 1556 1558 1558 1556 1555 1553 1555 1553 1547 1552 1558 1553 1555 1557 1555 1557 1556 1553 1555 1554 1552 1557 1561 1557 1557 1559 1561 1563 1553 1540 1539 1530 1524 1524 1513 1505 1507 1505 1506 1510 1510 1511 1512 1511 1510 1508 1506 1504 1502
1555 1554 1553 1553 1552 1552 1552 1551 1551 1551 1552 1553 1554 1556 1558 1558 1558 1560 1560 1560 1560 1560 1557 1553 1554 1556 1557 1555 1552 1557 1559 1553 1553 1554 1549 1549 1549 1550 1555 1555 1557 1559 1558 1557 1553 1556 1558 1548 1549 1559 1556 1554 1558 1555 1553 1556 1558 1555 1554 1557 1558 1553 1553 1560 1560 1554 1555 1552 1541 1536 1535 1533 1529 1516 1506 1507 1508 1509 1512 1512 1513 1512 1510 1509 1506 1504 1502 1500
1554 1554 1553 1553 1552 1552 1552 1551 1552 1552 1552 1554 1555 1555 1558 1559 1559 1560 1560 1560 1560 1559 1557 1556 1557 1558 1559 1558 1554 1558 1560 1554 1553 1555 1550 1549 1549 1551 1555 1555 1557 1559 1558 1559 1556 1556 1559 1551 1547 1556 1559 1555 1556 1554 1549 1551 1558 1559 1558 1561 1561 1559 1557 1559 1563 1560 1557 1554 1543 1534 1531 1526 1520 1515 1510 1508 1510 1513 1513 1514 1514 1511 1509 1508 1506 1503 1501 1498
1554 1553 1553 1553 1553 1552 1552 1552 1552 1552 1553 1556 1557 1556 1559 1559 1559 1559 1559 1559 1560 1559 1558 1559 1560 1558 1557 1560 1559 1559 1562 1560 1558 1555 1552 1552 1551 1551 1556 1556 1556 1558 1558 1559 1558 1557 1559 1556 1549 1551 1557 1554 1549 1549 1547 1546 1552 1556 1556 1558 1559 1562 1564 1562 1563 1564 1557 1551 1549 1542 1527 1513 1511 1514 1511 1508 1511 1514 1514 1514 1512 1508 1506 1506 1504 1502 1499 1497
1554 1553 1553 1553 1553 1553 1553 1552 1553 1555 1555 1557 1558 1558 1559 1559 1558 1559 1559 1560 1560 1559 1559 1560 1559 1558 1557 1558 1559 1560 1560 1561 1561 1558 1554 1554 1550 1549 1556 1558 1557 1558 1558 1557 1558 1558 1557 1557 1553 1551 1551 1546 1543 1550 1554 1550 1551 1551 1549 1551 1553 1556 1559 1556 1556 1564 1564 1555 1550 1547 1530 1510 1507 1511 1510 1510 1512 1513 1513 1512 1508 1505 1504 1503 1502 1501 1499 1496
1554 1554 1554 1553 1553 1553 1553 1553 1556 1558 1556 1555 1557 1558 1559 1558 1559 1559 1559 1560 1560 1560 1560 1560 1560 1560 1559 1557 1559 1561 1559 1558 1560 1558 1554 1554 1553 1552 1556 1559 1558 1558 1557 1556 1558 1559 1559 1560 1558 1552 1547 1545 1548 1555 1556 1553 1555 1554 1551 1554 1556 1554 1553 1549 1547 1555 1564 1561 1559 1563 1548 1518 1506 1509 1510 1511 1512 1512 1511 1509 1505 1503 1502 1502 1500 1498 1496 1493
1554 1554 1553 1553 1553 1553 1552 1553 1556 1557 1556 1556 1558 1558 1558 1559 1559 1559 1559 1559 1560 1560 1559 1560 1559 1559 1559 1559 1559 1560 1559 1555 1556 1555 1553 1555 1556 1556 1558 1558 1557 1558 1557 1556 1558 1559 1559 1559 1557 1550 1544 1547 1554 1557 1556 1556 1556 1553 1553 1558 1558 1553 1551 1551 1551 1554 1558 1555 1555 1560 1545 1517 1506 1509 1509 1510 1511 1510 1508 1507 1505 1503 1500 1499 1498 1496 1493 1490
1553 1553 1553 1552 1552 1552 1552 1553 1554 1554 1556 1558 1558 1558 1558 1559 1559 1559 1559 1559 1559 1560 1559 1559 1559 1558 1559 1561 1560 1559 1559 1554 1552 1554 1556 1556 1556 1557 1558 1558 1557 1557 1556 1555 1556 1557 1555 1555 1556 1551 1544 1542 1545 1548 1549 1552 1553 1550 1552 1558 1558 1555 1557 1558 1559 1562 1557 1548 1546 1545 1530 1510 1506 1509 1507 1508 1509 1507 1507 1506 1505 1503 1500 1497 1495 1492 1490 1487
1553 1552 1552 1552 1552 1552 1552 1553 1553 1554 1557 1558 1557 1558 1558 1558 1558 1558 1559 1559 1559 1559 1559 1558 1559 1559 1560 1561 1560 1560 1561 1556 1553 1556 1558 1557 1556 1557 1558 1557 1557 1557 1556 1556 1558 1556 1554 1556 1556 1552 1549 1545 1539 1537 1539 1543 1549 1551 1553 1556 1556 1556 1557 1553 1553 1557 1553 1547 1547 1540 1521 1506 1505 1508 1507 1508 1510 1508 1507 1506 1504 1502 1499 1496 1494 1490 1487 1484
1553 1552 1553 1552 1552 1552 1552 1554 1554 1554 1557 1557 1555 1558 1559 1557 1557 1558 1558 1558 1559 1559 1559 1559 1559 1559 1560 1560 1558 1558 1560 1560 1558 1557 1556 1554 1554 1557 1558 1556 1557 1557 1556 1558 1558 1557 1559 1561 1557 1551 1549 1545 1536 1536 1543 1548 1548 1548 1549 1550 1551 1555 1557 1553 1554 1553 1548 1547 1546 1536 1523 1515 1510 1509 1509 1510 1510 1509 1508 1506 1503 1500 1497 1495 1493 1490 1486 1483
1554 1554 1555 1554 1552 1552 1553 1554 1555 1554 1556 1556 1555 1557 1558 1557 1558 1558 1558 1558 1558 1559 1559 1559 1559 1558 1557 1558 1557 1556 1559 1561 1560 1558 1556 1555 1555 1557 1557 1557 1557 1557 1558 1558 1557 1559 1560 1557 1557 1556 1548 1542 1541 1542 1548 1551 1549 1547 1548 1547 1547 1553 1556 1555 1552 1546 1541 1545 1540 1528 1525 1523 1513 1508 1509 1510 1511 1510 1508 1505 1502 1499 1496 1493 1491 1487 1484 1482
1554 1555 1557 1556 1554 1554 1554 1554 1555 1556 1556 1556 1557 1558 1558 1557 1556 1555 1556 1558 1558 1558 1558 1557 1557 1557 1556 1557 1555 1554 1556 1557 1556 1555 1555 1556 1556 1555 1554 1557 1558 1557 1558 1559 1558 1560 1559 1555 1559 1561 1550 1545 1549 1548 1547 1551 1550 1548 1549 1547 1546 1551 1553 1551 1546 1541 1542 1546 1536 1522 1523 1524 1515 1510 1511 1512 1511 1509 1506 1504 1501 1497 1494 1491 1487 1484 1481 1479
1555 1555 1556 1557 1556 1556 1556 1555 1556 1556 1556 1557 1558 1558 1557 1556 1554 1554 1557 1558 1557 1558 1558 1554 1553 1555 1557 1557 1556 1554 1554 1551 1550 1552 1553 1554 1555 1554 1551 1552 1557 1559 1559 1560 1560 1560 1558 1556 1562 1565 1554 1546 1547 1547 1548 1551 1550 1548 1547 1546 1546 1548 1550 1549 1545 1542 1544 1543 1534 1527 1528 1525 1517 1513 1513 1512 1510 1508 1506 1503 1499 1495 1492 1489 1485 1481 1479 1476
1555 1555 1555 1556 1556 1556 1556 1556 1556 1556 1557 1557 1556 1556 1558 1556 1554 1555 1557 1555 1554 1556 1558 1554 1553 1555 1557 1558 1556 1553 1552 1550 1549 1550 1552 1553 1554 1554 1551 1549 1555 1560 1560 1560 1561 1561 1557 1556 1563 1566 1554 1543 1543 1546 1549 1550 1550 1547 1543 1541 1543 1544 1545 1548 1547 1544 1544 1540 1534 1533 1533 1525 1517 1514 1513 1510 1508 1506 1504 1500 1496 1492 1489 1486 1483 1480 1477 1475
1555 1555 1555 1555 1555 1556 1556 1556 1557 1556 1556 1556 1555 1555 1557 1556 1556 1555 1555 1554 1553 1554 1556 1554 1553 1555 1557 1557 1556 1552 1551 1552 1551 1551 1553 1553 1552 1553 1552 1551 1554 1557 1558 1560 1561 1559 1557 1558 1563 1564 1552 1542 1543 1545 1546 1549 1550 1547 1541 1539 1540 1538 1538 1541 1541 1539 1537 1533 1529 1531 1530 1522 1515 1513 1510 1507 1505 1504 1501 1498 1495 1490 1486 1483 1480 1478 1476 1473
1554 1554 1555 1554 1554 1556 1557 1556 1557 1555 1553 1555 1555 1555 1555 1555 1556 1556 1553 1553 1554 1554 1554 1554 1554 1554 1555 1554 1553 1552 1551 1552 1552 1552 1552 1552 1552 1552 1552 1552 1553 1553 1556 1559 1561 1562 1562 1558 1559 1562 1553 1542 1543 1547 1546 1544 1541 1539 1540 1540 1538 1537 1536 1536 1536 1534 1532 1530 1528 1527 1523 1518 1515 1514 1510 1504 1501 1499 1498 1496 1494 1489 1484 1480 1478 1476 1474 1471